DECAYED

CZ-3B R/B, 45345 (Decayed)

Orbit data source: Space-Track

CZ-3B R/B, 45345 was space debris in LEO originally from a launch on Mon, 09 Mar 2020 UTC launched from the Xichang Space Center, China (XSC). Debris objects in space refer to the collection of defunct objects orbiting the Earth. Examples of debris include non-operational satellites, rocket bodies, and fragments generated from explosions, collisions, or faulty payload assembly.

Not visible in the next 10 days
Identifier
45345, 2020-017B
Orbit
Decayed
Country
Flag of CNCN / PRC
Related business
Manufacturer
CALT
Mission
Decayed spacecraft
Bus & Motor
CZ-3A STAGE 3, Unknown motor
Mass
~2,800 kg wet, ~2,800 kg dry
Launch date (UTC)
2020-03-09 (6 years ago)
Launch vehicle
Unknown
Launch site
Xichang Space Center, China (XSC)
Object type
Payload
Rocket body
Debris
Shape & HBR
Cyl + 1 Nozzle, 6.2 m
Radar Cross Section
32.704 m², Large (>1 m²)

Expand to show TLE details & history
Last TLE update: 8 months ago

TLE from 8 months ago
0 CZ-3B R/B
1 45345U 20017B   25300.59655031  .27416764 -89398-5  65458-3 0  9996
2 45345  27.8975  17.3573 0375940 191.7494 167.4119 15.66405876 83884
Epoch: 2025-10-27T14:19Z
TLE epoch observation values (Epoch: 2025-10-27T14:19:01.946Z)
Latitude
-0°
Longitude
126.40307°
Altitude
615.275 km
Speed
7.414 km/s
True Right ascension
01h 09m 25s
True Declination
0° 00' 00"
Sunlit
Object was in full shadow at epoch
Visualization orbit readout
Latitude
Unknown
Longitude
Unknown
Altitude
Unknown
Speed
Unknown
Apparent Right ascension
Unknown
Apparent Declination
Unknown
Sunlit
N/A
Visualization observer readout
Local Sidereal Time
21:38:14
Azimuth
Unknown
Elevation
Unknown
Doppler factor
Unknown
Orbital elements
Apogee altitude
627.423 km
Perigee altitude
119.773 km
Semi-major axis
6,751.735 km
Eccentricity
0.03759
Inclination
27.8975°
RAAN
17.3573°
Arg. of periapsis
191.7494°
True anomaly
168.3095°
Mean anomaly
167.4119°
Eccentric anomaly
167.86471°
Mean motion
3.91219 °/min
Orbital period
92.02 mins
BSTAR
0.00065458
Loading maneuver chart data...
Computing Atmospheric mass density...
Loading historical data...
Loading historical data...
Loading historical data...
Loading historical data...
Loading historical data...
Loading historical data...
Loading historical data...
Other satellites on launch #17 in the year 2020 (2020-03-09 UTC)

Documentation

Showing up to 5 results
|